Welcome to Des Moines Iowa Weather. I am an independent private personal weather station on the Northwest Side of Des Moines, Iowa. Just East of Windsor Heights and just West of Glendale . This site is also mobile friendly.

There are no active watches, warnings or advisories


Visit our other weather sites:

Historical Data

Weather Station Setup



Weather Underground History page Text

Daily Summary for March 23, 2017 Units:  English    Metric   Both
« Previous Day
Next Day »
Daily Weekly Monthly Yearly Custom
  High: Low: Average:
Temperature: 55.1 °F 40.3 °F 46.8 °F
Dew Point: 43.0 °F 19.0 °F 31.6 °F
Humidity: 68 % 42 % 56 %
Wind Speed: 12.0 mph 0.0 mph 3.3 mph
Wind Gust: 17.0 mph - -
Wind:- - SSE
Pressure: 30.29 in 29.74 in -
Precipitation: 0.00 in    
Historical Graphs
 
 
Tabular Data for March 23, 2017
Time Temperature Dew Point Pressure Wind Wind Speed Wind Gust Humidity Rainfall Rate (Hourly)
00:06 41.1 °F 21.0 °F 30.29 in South 2.0 mph 7.0 mph 45 % 0.00 in
00:21 41.0 °F 21.0 °F 30.27 in SSE 2.0 mph 10.0 mph 46 % 0.00 in
00:36 40.9 °F 21.0 °F 30.26 in SSE 3.0 mph 10.0 mph 45 % 0.00 in
00:51 40.9 °F 21.0 °F 30.26 in SSE 5.0 mph 10.0 mph 45 % 0.00 in
01:06 40.8 °F 21.0 °F 30.24 in South 8.0 mph 12.0 mph 45 % 0.00 in
01:21 40.8 °F 21.0 °F 30.24 in SSE 3.0 mph 8.0 mph 45 % 0.00 in
01:36 40.8 °F 21.0 °F 30.25 in South 3.0 mph 6.0 mph 45 % 0.00 in
01:51 40.8 °F 20.0 °F 30.24 in South 5.0 mph 11.0 mph 44 % 0.00 in
02:06 40.8 °F 21.0 °F 30.24 in South 1.0 mph 7.0 mph 45 % 0.00 in
02:21 40.8 °F 20.0 °F 30.23 in Calm   14.0 mph 44 % 0.00 in
02:36 40.9 °F 20.0 °F 30.23 in SE 3.0 mph 8.0 mph 44 % 0.00 in
02:51 40.9 °F 20.0 °F 30.22 in South 5.0 mph 11.0 mph 43 % 0.00 in
03:06 41.0 °F 20.0 °F 30.22 in South 6.0 mph 7.0 mph 43 % 0.00 in
03:21 41.0 °F 19.0 °F 30.23 in Calm   8.0 mph 42 % 0.00 in
03:36 41.0 °F 19.0 °F 30.23 in South 4.0 mph 7.0 mph 42 % 0.00 in
03:51 41.0 °F 19.0 °F 30.22 in SE 1.0 mph 9.0 mph 42 % 0.00 in
04:06 41.0 °F 20.0 °F 30.21 in SSE 2.0 mph 7.0 mph 43 % 0.00 in
04:21 41.0 °F 20.0 °F 30.20 in SSW 8.0 mph 8.0 mph 43 % 0.00 in
04:36 40.8 °F 20.0 °F 30.19 in South 2.0 mph 8.0 mph 44 % 0.00 in
04:51 40.7 °F 20.0 °F 30.19 in SSE 7.0 mph 10.0 mph 44 % 0.00 in
05:06 40.6 °F 21.0 °F 30.18 in SSE 4.0 mph 7.0 mph 45 % 0.00 in
05:21 40.4 °F 20.0 °F 30.18 in SSE 7.0 mph 12.0 mph 45 % 0.00 in
05:37 40.3 °F 21.0 °F 30.17 in SSW 5.0 mph 10.0 mph 46 % 0.00 in
05:52 40.3 °F 21.0 °F 30.17 in South 1.0 mph 9.0 mph 47 % 0.00 in
06:07 40.3 °F 22.0 °F 30.16 in South 5.0 mph 7.0 mph 48 % 0.00 in
06:22 40.3 °F 22.0 °F 30.15 in South 6.0 mph 10.0 mph 48 % 0.00 in
06:37 40.3 °F 22.0 °F 30.15 in ENE 1.0 mph 8.0 mph 48 % 0.00 in
06:52 40.4 °F 22.0 °F 30.15 in SSE 4.0 mph 10.0 mph 48 % 0.00 in
07:07 40.4 °F 22.0 °F 30.14 in South 2.0 mph 11.0 mph 48 % 0.00 in
07:22 40.4 °F 22.0 °F 30.14 in Calm   8.0 mph 49 % 0.00 in
07:37 40.4 °F 23.0 °F 30.14 in SE 3.0 mph 9.0 mph 50 % 0.00 in
07:52 40.5 °F 23.0 °F 30.14 in SE 2.0 mph 9.0 mph 51 % 0.00 in
08:07 40.6 °F 24.0 °F 30.14 in Calm   7.0 mph 52 % 0.00 in
08:22 40.8 °F 24.0 °F 30.14 in SSE 2.0 mph 11.0 mph 52 % 0.00 in
08:37 41.1 °F 25.0 °F 30.13 in South 3.0 mph 8.0 mph 54 % 0.00 in
08:52 41.5 °F 27.0 °F 30.13 in South 1.0 mph 9.0 mph 56 % 0.00 in
09:07 41.9 °F 27.0 °F 30.11 in South 2.0 mph 11.0 mph 57 % 0.00 in
09:22 42.5 °F 28.0 °F 30.11 in SSW 9.0 mph 10.0 mph 58 % 0.00 in
09:37 42.6 °F 29.0 °F 30.11 in SSE 1.0 mph 9.0 mph 59 % 0.00 in
09:52 43.2 °F 30.0 °F 30.09 in South 11.0 mph 11.0 mph 60 % 0.00 in
10:07 43.6 °F 30.0 °F 30.09 in SSE 2.0 mph 10.0 mph 59 % 0.00 in
10:22 43.5 °F 30.0 °F 30.09 in South 6.0 mph 9.0 mph 59 % 0.00 in
10:37 43.0 °F 30.0 °F 30.09 in SSE 4.0 mph 10.0 mph 60 % 0.00 in
10:52 43.2 °F 30.0 °F 30.08 in SE 2.0 mph 8.0 mph 60 % 0.00 in
11:07 43.3 °F 31.0 °F 30.07 in South 5.0 mph 11.0 mph 62 % 0.00 in
11:22 43.5 °F 32.0 °F 30.07 in SSE 2.0 mph 9.0 mph 63 % 0.00 in
11:38 43.6 °F 32.0 °F 30.06 in SSE 5.0 mph 15.0 mph 63 % 0.00 in
11:52 44.0 °F 32.0 °F 30.06 in South 2.0 mph 9.0 mph 64 % 0.00 in
12:07 44.4 °F 33.0 °F 30.04 in SSE 4.0 mph 8.0 mph 64 % 0.00 in
12:23 45.1 °F 34.0 °F 30.02 in South 3.0 mph 9.0 mph 65 % 0.00 in
12:38 46.2 °F 35.0 °F 30.01 in South 6.0 mph 12.0 mph 64 % 0.00 in
12:53 48.0 °F 36.0 °F 29.99 in South 4.0 mph 13.0 mph 63 % 0.00 in
13:08 48.0 °F 36.0 °F 29.98 in ESE 12.0 mph 14.0 mph 63 % 0.00 in
13:23 48.3 °F 37.0 °F 29.97 in Calm   11.0 mph 64 % 0.00 in
13:38 49.5 °F 38.0 °F 29.95 in SSE 7.0 mph 11.0 mph 64 % 0.00 in
13:53 50.5 °F 38.0 °F 29.93 in SSE 1.0 mph 12.0 mph 62 % 0.00 in
14:08 51.1 °F 37.0 °F 29.92 in South 5.0 mph 17.0 mph 60 % 0.00 in
14:23 52.8 °F 38.0 °F 29.91 in SSE 5.0 mph 14.0 mph 58 % 0.00 in
14:38 53.9 °F 38.0 °F 29.89 in South 3.0 mph 14.0 mph 56 % 0.00 in
14:53 54.7 °F 39.0 °F 29.89 in South 1.0 mph 9.0 mph 56 % 0.00 in
15:08 54.2 °F 39.0 °F 29.90 in South 3.0 mph 10.0 mph 57 % 0.00 in
15:23 53.9 °F 39.0 °F 29.89 in South 3.0 mph 8.0 mph 57 % 0.00 in
15:38 53.8 °F 39.0 °F 29.88 in Calm   14.0 mph 58 % 0.00 in
15:53 54.3 °F 39.0 °F 29.88 in South 4.0 mph 10.0 mph 57 % 0.00 in
16:08 54.6 °F 39.0 °F 29.90 in SSE 4.0 mph 6.0 mph 57 % 0.00 in
16:23 55.1 °F 40.0 °F 29.87 in SSE 7.0 mph 9.0 mph 57 % 0.00 in
16:38 54.8 °F 40.0 °F 29.82 in SE 1.0 mph 12.0 mph 57 % 0.00 in
16:53 54.9 °F 40.0 °F 29.86 in SE 2.0 mph 7.0 mph 58 % 0.00 in
17:09 54.7 °F 40.0 °F 29.84 in ESE 3.0 mph 9.0 mph 59 % 0.00 in
17:23 54.2 °F 40.0 °F 29.82 in SE 3.0 mph 9.0 mph 60 % 0.00 in
17:38 53.8 °F 40.0 °F 29.82 in ENE 3.0 mph 12.0 mph 60 % 0.00 in
17:53 53.4 °F 40.0 °F 29.82 in ESE 4.0 mph 8.0 mph 62 % 0.00 in
18:08 53.4 °F 40.0 °F 29.79 in ENE 1.0 mph 5.0 mph 62 % 0.00 in
18:23 53.7 °F 41.0 °F 29.78 in East 1.0 mph 6.0 mph 62 % 0.00 in
18:38 54.0 °F 41.0 °F 29.78 in ESE 2.0 mph 8.0 mph 62 % 0.00 in
18:54 53.4 °F 40.0 °F 29.77 in SSE 4.0 mph 12.0 mph 62 % 0.00 in
19:09 52.6 °F 40.0 °F 29.75 in SE 2.0 mph 11.0 mph 63 % 0.00 in
19:24 52.2 °F 40.0 °F 29.74 in SSE 4.0 mph 9.0 mph 64 % 0.00 in
19:39 52.1 °F 41.0 °F 29.74 in South 4.0 mph 12.0 mph 65 % 0.00 in
19:54 51.9 °F 41.0 °F 29.75 in SE 4.0 mph 8.0 mph 66 % 0.00 in
20:09 51.8 °F 41.0 °F 29.76 in SSE 2.0 mph 11.0 mph 66 % 0.00 in
20:24 51.7 °F 41.0 °F 29.77 in Calm   4.0 mph 66 % 0.00 in
20:39 51.4 °F 41.0 °F 29.77 in Calm   6.0 mph 67 % 0.00 in
20:54 51.2 °F 41.0 °F 29.77 in SSE 1.0 mph 5.0 mph 68 % 0.00 in
21:09 51.2 °F 41.0 °F 29.76 in SSE 4.0 mph 7.0 mph 68 % 0.00 in
21:24 51.5 °F 41.0 °F 29.75 in SSE 4.0 mph 7.0 mph 67 % 0.00 in
21:39 51.9 °F 41.0 °F 29.75 in SSE 6.0 mph 6.0 mph 67 % 0.00 in
21:54 52.5 °F 41.0 °F 29.75 in SSE 3.0 mph 7.0 mph 66 % 0.00 in
22:09 52.9 °F 41.0 °F 29.75 in South 3.0 mph 6.0 mph 65 % 0.00 in
22:24 53.2 °F 42.0 °F 29.76 in SSE 2.0 mph 6.0 mph 65 % 0.00 in
22:39 53.2 °F 42.0 °F 29.77 in Calm   4.0 mph 65 % 0.00 in
22:54 53.2 °F 42.0 °F 29.77 in Calm   3.0 mph 66 % 0.00 in
23:09 53.5 °F 42.0 °F 29.76 in SSE 4.0 mph 5.0 mph 66 % 0.00 in
23:24 53.5 °F 42.0 °F 29.77 in SSE 2.0 mph 5.0 mph 66 % 0.00 in
23:39 53.4 °F 43.0 °F 29.76 in SSE 1.0 mph 6.0 mph 67 % 0.00 in
23:54 53.4 °F 43.0 °F 29.75 in SSE 5.0 mph 6.0 mph 67 % 0.00 in
Des Moines Weather and Climate
Compliments of Weather Underground - 3 mb

Script developed by  Jim McMurry - jmcmurry@mwt.net Adapted for the template by  Wim van der Kuil - Leuven-Template.eu

You find our weather info also at:

Weather Underground

Equipment we use:

Weather-station
Davis VP2 Plus

Weather-program
Davis Weatherlink.Com

Weather-server
iMac (Retina 4K, 21.5-inch, Late 2015)

Provider
Hostmonster.com

Davis VP2 Plus

Davis Weatherlink.Com

iMac (Retina 4K, 21.5-inch, Late 2015)

Hostmonster.com